Location: Ch�tillon
(48.8024°N, 2.2935°E)
Time: 08:06:06
(UTC+00:00)

LO-87 - Pass Details

Date: 02 July 2022
Orbit: 451 x 466 km, 97.4° (Epoch: 09 August)

Event Time Altitude Azimuth Distance (km) Brightness Sun altitude
Exits shadow 22:53:55 32° 119° (ESE) 821 ? -16.9°
Maximum altitude 22:55:01 44° 72° (ENE) 657 ? -17.0°
Drops below altitude 10° 22:58:21 10° 359° (N) 1,629 ? -17.1°
Sets 23:00:28 0° 353° (N) 2,514 ? -17.2°
